Tracking 35274 objects as of 10-Sep-2026
HD Live streaming from Space Station
objects crossing your sky now

STARLINK-5031

Track STARLINK-5031 now!
10-day predictions
STARLINK-5031 is classified as:


NORAD ID: 53889
Int'l Code: 2022-119D
Launch date: September 24, 2022
Source: United States (US)
Launch site: AIR FORCE EASTERN TEST RANGE (AFETR)
Your satellite tracking list
Your tracking list is empty




NASA's NSSDC Master Catalog

Two Line Element Set (TLE):
1 53889U 22119D   26251.90507514  .00000518  00000-0  28440-4 0  9991
2 53889  53.1601 216.8568 0001035  89.8993 270.2127 15.31701256219400
Source of the keplerian elements: AFSPC